Weather in Vila Velha

Brazil     20°19′49″S   40°17′31″W
temp.,
°C
wind,
m/s
gust,
m/s
humid.,
%
clouds,
%
prec.,
mm/h
press.,
hPa
HPBL,
m
10 august, wed
wed1000:00+21n488160 0.0 1018407
03:00+21n488143 0.0 1016347
06:00+20n5118223 0.0 1016489
09:00+25n812586 0.0 1016855
12:00+29n7114161 0.0 1013821
15:00+29nne71048100 0.0 10091134
18:00+25ne81466100 0.0 1010409
21:00+24n51169100 0.0 1011570
11 august, thu
thu1100:00+23s467180 0.0 1013303
03:00+22ssw347598 0.0 1012475
06:00+22sw2374100 0.0 1014381
09:00+23ssw455476 0.0 1017729
12:00+24sse6643100 0.0 1016668
15:00+24sse5646100 0.0 1015694
18:00+23ssw71064100 0.0 1017994
21:00+21ssw111667100 0.0 10201088
12 august, fri
fri1200:00+21ssw91369100 0.0 10211299
03:00+20sw71274100 0.1 10211090
06:00+19sw61073100 0.1 1023784
09:00+21ssw796693 0.2 10251047
12:00+22s786341 0.2 10241249
15:00+22sse7859100 0.3 10231231
18:00+21sse5658100 0.0 10241131
21:00+20s456993 0.1 1025733
13 august, sat
sat1300:00+20sse4574100 0.8 1025533
03:00+20sse347696 1.9 1024546
06:00+20s237293 0.4 1025616
09:00+21s226376 0.6 1027890
12:00+22ese435476 0.1 10261246
15:00+22e43544 0.1 10241093
18:00+21ene45590 0.0 1024804
21:00+20ne236220 0.0 1025511
14 august, sun
sun1400:00+19nnw226751 0.0 1025353
03:00+18wnw227083 0.0 1023209
06:00+18nw126950 0.0 1023195
09:00+21n235912 0.0 1024683
12:00+23ene55540 0.0 1023927
15:00+23ene66530 0.0 10201045
18:00+22ene67670 0.0 1021965
21:00+21ne467085 0.0 1023791